Dublin, Ireland

5:59 AM IST on April 27, 2018 (GMT +0100)
Dublin International

Weather History for EIDW - October, 2013

Change the Weather History Date:

Thursday, October 3, 2013

  Actual Average Record
Temperature  
Mean Temperature 59 °F -  
Max Temperature 61 °F 56 °F 68 °F (2011)
Min Temperature 57 °F 45 °F 37 °F (2008)
Degree Days  
Heating Degree Days 6    
Growing Degree Days 9 (Base 50)    
Moisture  
Dew Point 59 °F    
Average Humidity 95    
Maximum Humidity 100    
Minimum Humidity 88    
Precipitation  
Precipitation 0.39 in 0.09 in - ()
Sea Level Pressure  
Sea Level Pressure 29.57 in    
Wind  
Wind Speed 10 mph ()    
Max Wind Speed 16 mph    
Max Gust Speed -    
Visibility 3.4 miles    
Events Rain    
Averages and records for this station are not official NWS values.
T = Trace of Precipitation, MM = Missing Value Source: Averaged Metar Reports

Daily Weather History Graph

Daily Weather History Graph

Search for Another Location

Airport or City:

Astronomy

Oct. 03, 2013 Rise Set
Actual Time 7:30 AM IST 6:56 PM IST
Civil Twilight 6:55 AM IST 7:31 PM IST
Nautical Twilight 6:14 AM IST 8:11 PM IST
Astronomical Twilight 5:33 AM IST 8:53 PM IST
Moon 5:40 AM IST (10/3) 6:02 PM IST (10/3)
Length of Visible Light 12h 35m
Length of Day
11h 26m
Waning Crescent, 3% of the Moon is Illuminated
Oct 3
Waning Crescent
Oct 5
New
Oct 12
First Quarter
Oct 19
Full
Oct 27
Last Quarter

Hourly Weather History & Observations

Time (IST) Temp. Dew Point Humidity Pressure Visibility Wind Dir Wind Speed Gust Speed Precip Events Conditions
12:00 AM 60.8 °F 59.0 °F 94% 29.62 in 5.0 mi SE 11.5 mph - N/A   Mostly Cloudy
12:30 AM 60.8 °F 59.0 °F 94% 29.62 in 4.3 mi SE 11.5 mph - N/A   Light Drizzle
1:00 AM 60 °F 59 °F 95% 29.63 in 4 mi SE 11.2 mph - - Rain Light Drizzle
1:00 AM 60.8 °F 59.0 °F 94% 29.62 in 4.3 mi SE 10.4 mph - N/A   Light Drizzle
1:30 AM 60.8 °F 59.0 °F 94% 29.62 in 3.7 mi SE 12.7 mph - N/A Rain Light Rain
2:00 AM 60.8 °F 59.0 °F 94% 29.62 in 3.1 mi SE 13.8 mph - N/A Rain Light Rain
2:30 AM 60.8 °F 59.0 °F 94% 29.62 in 4.3 mi SE 12.7 mph - N/A   Light Drizzle
3:00 AM 60.8 °F 59.0 °F 94% 29.62 in 3.7 mi SE 11.5 mph - N/A   Light Drizzle
3:30 AM 60.8 °F 59.0 °F 94% 29.62 in 4.3 mi SE 12.7 mph - N/A   Light Drizzle
4:00 AM 60.8 °F 59.0 °F 94% 29.59 in 4.3 mi SE 12.7 mph - N/A   Light Drizzle
4:30 AM 60.8 °F 59.0 °F 94% 29.59 in 3.7 mi SE 13.8 mph - N/A   Light Drizzle
5:00 AM 60.8 °F 59.0 °F 94% 29.59 in 3.1 mi SE 11.5 mph - N/A Rain Light Rain
5:30 AM 60.8 °F 59.0 °F 94% 29.62 in 3.7 mi SE 15.0 mph - N/A Rain Light Rain
6:00 AM 59.0 °F 59.0 °F 100% 29.59 in 3.1 mi SE 15.0 mph - N/A Rain Light Rain
6:30 AM 59.0 °F 59.0 °F 100% 29.59 in 2.5 mi SE 13.8 mph - N/A Rain Light Rain
7:00 AM 59 °F 59 °F 99% 29.61 in 3 mi SE 15.7 mph - - Rain Heavy Rain
7:00 AM 59.0 °F 59.0 °F 100% 29.59 in 3.1 mi SE 16.1 mph - N/A Rain Light Rain
7:30 AM 59.0 °F 59.0 °F 100% 29.59 in 3.1 mi SSE 13.8 mph - N/A   Light Drizzle
8:00 AM 60.8 °F 59.0 °F 94% 29.59 in 5.0 mi SSE 12.7 mph - N/A   Light Drizzle
8:30 AM 60.8 °F 59.0 °F 94% 29.59 in 5.6 mi SSE 11.5 mph - N/A Rain Light Rain
9:00 AM 62.6 °F 59.0 °F 88% 29.62 in 5.6 mi SE 10.4 mph - N/A   Mostly Cloudy
9:30 AM 60.8 °F 59.0 °F 94% 29.62 in 5.6 mi SE 12.7 mph - N/A Rain Light Rain
10:00 AM 60.8 °F 59.0 °F 94% 29.62 in 5.0 mi SSE 15.0 mph - N/A Rain Light Rain
10:30 AM 60.8 °F 59.0 °F 94% 29.62 in 3.7 mi SE 15.0 mph - N/A Rain Light Rain
11:00 AM 60.8 °F 59.0 °F 94% 29.59 in 5.0 mi SE 11.5 mph - N/A Rain Light Rain
11:30 AM 60.8 °F 59.0 °F 94% 29.59 in 4.3 mi SE 12.7 mph - N/A   Mostly Cloudy
12:00 PM 60.8 °F 59.0 °F 94% 29.59 in 3.7 mi SSE 12.7 mph - N/A   Mostly Cloudy
12:30 PM 60.8 °F 59.0 °F 94% 29.59 in 5.0 mi SE 12.7 mph - N/A   Mostly Cloudy
1:00 PM 61 °F 59 °F 92% 29.59 in 5 mi SSE 13.4 mph - - Rain Light Drizzle
1:00 PM 60.8 °F 59.0 °F 94% 29.59 in 5.0 mi SSE 12.7 mph - N/A   Mostly Cloudy
1:30 PM 60.8 °F 59.0 °F 94% 29.56 in 5.0 mi SSE 12.7 mph - N/A   Mostly Cloudy
2:00 PM 60.8 °F 59.0 °F 94% 29.56 in 3.7 mi SSE 9.2 mph - N/A Rain Light Rain
2:30 PM 60.8 °F 59.0 °F 94% 29.56 in 3.1 mi SSE 8.1 mph - N/A Rain Rain
3:00 PM 60.8 °F 59.0 °F 94% 29.56 in 4.3 mi SE 9.2 mph - N/A Rain Light Rain
3:30 PM 60.8 °F 59.0 °F 94% 29.53 in 4.3 mi SE 11.5 mph - N/A Rain Light Rain
4:00 PM 60.8 °F 59.0 °F 94% 29.53 in 3.7 mi SE 10.4 mph - N/A Rain Light Rain
4:30 PM 59.0 °F 59.0 °F 100% 29.53 in 2.8 mi SE 9.2 mph - N/A Rain Light Rain
5:00 PM 59.0 °F 59.0 °F 100% 29.50 in 2.5 mi ESE 6.9 mph - N/A Rain Light Rain
5:30 PM 59.0 °F 57.2 °F 94% 29.50 in 2.5 mi ESE 6.9 mph - N/A Rain Light Rain
6:00 PM 59.0 °F 59.0 °F 100% 29.50 in 2.2 mi SE 9.2 mph - N/A Rain Light Rain
6:30 PM 59.0 °F 57.2 °F 94% 29.50 in 2.2 mi SE 8.1 mph - N/A Rain Light Rain
7:00 PM 58 °F 58 °F 100%  in 2 mi SE 8.9 mph - - Rain Light Rain
7:00 PM 59.0 °F 57.2 °F 94% 29.53 in 1.7 mi SE 8.1 mph - N/A Rain Light Rain
7:30 PM 59.0 °F 57.2 °F 94% 29.53 in 1.9 mi SE 6.9 mph - N/A   Light Drizzle
8:00 PM 59.0 °F 57.2 °F 94% 29.53 in 1.2 mi SE 6.9 mph - N/A Rain Light Rain
8:30 PM 59.0 °F 57.2 °F 94% 29.53 in 0.7 mi SSE 6.9 mph - N/A Rain Light Rain
9:00 PM 59.0 °F 57.2 °F 94% 29.53 in 0.7 mi SSE 4.6 mph - N/A Rain Light Rain
9:30 PM 59.0 °F 57.2 °F 94% 29.53 in 0.9 mi SSE 5.8 mph - N/A Rain Light Rain
10:00 PM 59.0 °F 57.2 °F 94% 29.53 in 0.9 mi SSE 5.8 mph - N/A Rain Light Rain
10:30 PM 59.0 °F 57.2 °F 94% 29.53 in 2.5 mi South 3.5 mph - N/A Rain Light Rain
11:00 PM 57.2 °F 57.2 °F 100% 29.53 in 2.5 mi SSE 3.5 mph - N/A   Mostly Cloudy
11:30 PM 57.2 °F 57.2 °F 100% 29.53 in 2.5 mi Variable 3.5 mph - N/A   Light Drizzle